Hourly Data Report for October 23, 2017

All times are specified in Local Standard Time (LST). Add 1 hour to adjust for Daylight Saving Time where and when it is observed.

IQALUIT CLIMATE
NUNAVUT

63°44'50.000" N
68°32'40.000" W
33.50 m
2402592
71321
XFB

Download Data

Hourly Data (October 2017)
Hourly Data Report for October 23, 2017
Temp Definition
°C
Dew Point Temp Definition
°C
Rel Hum Definition
%
Wind Dir Definition
10's deg

Wind Spd Definition
km/h
Visibility Definition
km
Stn Press Definition
kPa
Hmdx Definition


Wind Chill Definition


Weather Definition


TIME
00:00 -1.4 -5.4 74 13 33   101.14   -9 LegendNANA
01:00 -0.8 -6.6 65 12 28   101.00   -7 LegendNANA
02:00 -0.6 -5.8 68 14 33   100.91   -8 LegendNANA
03:00 -0.2 -5.9 65 14 30   100.78   -7 LegendNANA
04:00 0.0 -6.4 62 13 39   100.58   -7 LegendNANA
05:00 0.1 -4.4 72 13 34   100.47     LegendNANA
06:00 0.4 -4.0 72 13 37   100.28     LegendNANA
07:00 0.6 -3.3 75 14 46   100.18     LegendNANA
08:00 0.9 -3.8 71 13 46   100.16     LegendNANA
09:00 0.9 -3.6 72 14 37   100.12     LegendNANA
10:00 0.9 -1.5 84 12 41   99.89     LegendNANA
11:00 0.9 -0.2 93 14 34   99.99     LegendNANA
12:00 1.0 -0.5 90 13 37   99.93     LegendNANA
13:00 0.9 -0.4 91 13 42   99.84     LegendNANA
14:00
15:00
16:00
17:00 1.2 -0.1 91 14 31   99.74     LegendNANA
18:00 1.5 0.0 90 13 30   99.65     LegendNANA
19:00 1.3 0.0 91 14 26   99.61     LegendNANA
20:00 2.1 0.4 89 13 29   99.55     LegendNANA
21:00 1.5 0.2 91 14 27   99.48     LegendNANA
22:00 2.2 0.4 88 14 33   99.43     LegendNANA
23:00 2.4 0.4 87 14 32   99.33     LegendNANA

Notes on Data Quality.

Legend

  • E = Estimated
  • M = Missing
  • NA = Not Available
  • ‡ = Partner data that is not subject to review by the National Climate Archives
Date modified: